Carrollton, GA

4:18 AM EST on November 21, 2019 (GMT -0500)
West Georgia Regional-Gray

Weather History for KCTJ - September, 2019

Change the Weather History Date:

Saturday, September 7, 2019

  Actual Average Record
Temperature  
Mean Temperature 78 °F -  
Max Temperature 92 °F 83 °F 94 °F (1951)
Min Temperature 64 °F 61 °F 46 °F (2017)
Cooling Degree Days 13    
Growing Degree Days 28 (Base 50)    
Moisture  
Dew Point 67 °F    
Average Humidity 70    
Maximum Humidity 93    
Minimum Humidity 45    
Precipitation  
Precipitation 0.00 in - - ()
Sea Level Pressure  
Sea Level Pressure 30.02 in    
Wind  
Wind Speed 3 mph (NW)    
Max Wind Speed 10 mph    
Max Gust Speed 10 mph    
Visibility 10 miles    
Events      
Averages and records for this station are not official NWS values.
T = Trace of Precipitation, MM = Missing Value Source: NWS Daily Summary

Daily Weather History Graph

Daily Weather History Graph

Search for Another Location

Airport or City:

Astronomy

Sep. 07, 2019 Rise Set
Actual Time 7:18 AM EDT 7:58 PM EDT
Civil Twilight 6:53 AM EDT 8:23 PM EDT
Nautical Twilight 6:23 AM EDT 8:53 PM EDT
Astronomical Twilight 5:53 AM EDT 9:23 PM EDT
Moon 3:59 PM EDT (9/7) 1:22 AM EDT (9/7)
Length of Visible Light 13h 30m
Length of Day
12h 39m
Waxing Gibbous, 65% of the Moon is Illuminated
Sep 7
Waxing Gibbous
Sep 14
Full
Sep 21
Last Quarter
Sep 28
New
Oct 5
First Quarter

Hourly Weather History & Observations

Time (EDT) Temp. Heat Index Dew Point Humidity Pressure Visibility Wind Dir Wind Speed Gust Speed Precip Events Conditions
12:15 AM 68.5 °F - 61.7 °F 79% 30.01 in 10.0 mi NW 3.5 mph - N/A   Clear
12:35 AM 69.1 °F - 61.7 °F 77% 30.01 in 10.0 mi NW 3.5 mph - N/A   Clear
12:55 AM 69.3 °F - 61.7 °F 77% 30.02 in 10.0 mi Calm Calm - N/A   Clear
1:15 AM 67.3 °F - 61.9 °F 83% 30.02 in 10.0 mi Calm Calm - N/A   Clear
1:35 AM 66.6 °F - 62.1 °F 85% 30.03 in 10.0 mi Calm Calm - N/A   Clear
1:55 AM 65.8 °F - 61.9 °F 87% 30.03 in 10.0 mi Calm Calm - N/A   Clear
2:15 AM 65.5 °F - 61.7 °F 88% 30.02 in 10.0 mi Calm Calm - N/A   Clear
2:35 AM 65.3 °F - 61.9 °F 89% 30.03 in 10.0 mi Calm Calm - N/A   Clear
2:55 AM 65.1 °F - 61.9 °F 89% 30.02 in 10.0 mi Calm Calm - N/A   Clear
3:15 AM 64.8 °F - 61.9 °F 90% 30.03 in 10.0 mi Calm Calm - N/A   Clear
3:35 AM 64.6 °F - 61.9 °F 91% 30.02 in 10.0 mi Calm Calm - N/A   Clear
3:55 AM 64.9 °F - 61.9 °F 90% 30.02 in 10.0 mi Calm Calm - N/A   Clear
4:15 AM 64.4 °F - 61.9 °F 92% 30.02 in 10.0 mi Calm Calm - N/A   Clear
4:35 AM 64.4 °F - 61.7 °F 91% 30.01 in 10.0 mi Calm Calm - N/A   Clear
4:55 AM 64.9 °F - 61.9 °F 90% 30.01 in 10.0 mi Calm Calm - N/A   Clear
5:15 AM 67.6 °F - 63.1 °F 85% 30.01 in 10.0 mi NW 5.8 mph - N/A   Clear
5:35 AM 69.4 °F - 63.9 °F 82% 30.01 in 10.0 mi NW 5.8 mph - N/A   Clear
5:55 AM 70.0 °F - 64.2 °F 82% 30.01 in 10.0 mi NW 4.6 mph - N/A   Clear
6:15 AM 69.8 °F - 64.0 °F 82% 30.02 in 10.0 mi Calm Calm - N/A   Clear
6:55 AM 65.7 °F - 63.1 °F 92% 30.03 in 10.0 mi Calm Calm - N/A   Clear
7:15 AM 65.3 °F - 63.0 °F 92% 30.03 in 10.0 mi Calm Calm - N/A   Clear
7:35 AM 65.5 °F - 63.1 °F 92% 30.04 in 10.0 mi Calm Calm - N/A   Clear
7:55 AM 65.3 °F - 63.3 °F 93% 30.05 in 10.0 mi Calm Calm - N/A   Clear
8:15 AM 66.6 °F - 64.0 °F 92% 30.05 in 10.0 mi Calm Calm - N/A   Clear
8:35 AM 68.2 °F - 65.1 °F 90% 30.06 in 10.0 mi Calm Calm - N/A   Clear
8:55 AM 71.4 °F - 67.1 °F 86% 30.06 in 10.0 mi NW 4.6 mph - N/A   Clear
9:15 AM 75.7 °F - 68.9 °F 79% 30.06 in 10.0 mi Calm Calm - N/A   Clear
9:35 AM 77.2 °F - 69.4 °F 77% 30.06 in 10.0 mi NW 5.8 mph - N/A   Clear
9:55 AM 78.4 °F - 70.0 °F 75% 30.06 in 10.0 mi NNW 4.6 mph - N/A   Clear
10:15 AM 79.9 °F - 70.2 °F 72% 30.06 in 10.0 mi NW 6.9 mph - N/A   Clear
10:35 AM 81.5 °F 85.3 °F 70.3 °F 69% 30.06 in 10.0 mi NNW 6.9 mph - N/A   Clear
10:55 AM 82.6 °F 86.8 °F 70.5 °F 67% 30.06 in 10.0 mi North 4.6 mph - N/A   Clear
11:15 AM 83.3 °F 87.9 °F 70.9 °F 66% 30.06 in 10.0 mi NNW 5.8 mph - N/A   Clear
11:35 AM 84.4 °F 89.4 °F 70.9 °F 64% 30.06 in 10.0 mi NW 4.6 mph - N/A   Clear
11:55 AM 85.1 °F 90.1 °F 70.9 °F 62% 30.06 in 10.0 mi NW 4.6 mph - N/A   Clear
12:15 PM 86.2 °F 91.4 °F 71.1 °F 60% 30.05 in 10.0 mi NW 8.1 mph - N/A   Clear
12:35 PM 86.9 °F 92.5 °F 70.9 °F 59% 30.04 in 10.0 mi NNW 9.2 mph - N/A   Scattered Clouds
12:55 PM 87.6 °F 93.5 °F 71.1 °F 58% 30.04 in 10.0 mi NW 6.9 mph - N/A   Scattered Clouds
1:15 PM 87.8 °F 92.6 °F 69.8 °F 55% 30.03 in 10.0 mi NW 8.1 mph - N/A   Scattered Clouds
1:35 PM 89.2 °F 93.6 °F 69.1 °F 51% 30.02 in 10.0 mi WNW 5.8 mph - N/A   Scattered Clouds
1:55 PM 89.1 °F 93.7 °F 69.1 °F 52% 30.02 in 10.0 mi NW 6.9 mph - N/A   Mostly Cloudy
2:15 PM 90.5 °F 94.6 °F 68.5 °F 48% 30.01 in 10.0 mi NNW 10.4 mph - N/A   Mostly Cloudy
2:35 PM 90.3 °F 94.3 °F 68.0 °F 48% 30.01 in 10.0 mi NW 8.1 mph - N/A   Overcast
2:55 PM 90.7 °F 95.0 °F 68.5 °F 48% 30.00 in 10.0 mi West 4.6 mph - N/A   Scattered Clouds
3:15 PM 91.4 °F 96.3 °F 69.4 °F 48% 29.99 in 10.0 mi West 8.1 mph - N/A   Scattered Clouds
3:35 PM 90.9 °F 95.3 °F 68.9 °F 48% 29.98 in 10.0 mi NW 6.9 mph 10.4 mph N/A   Scattered Clouds
3:55 PM 90.1 °F 94.4 °F 68.7 °F 49% 29.98 in 10.0 mi WNW 8.1 mph - N/A   Clear
4:15 PM 91.6 °F 95.7 °F 68.4 °F 46% 29.97 in 10.0 mi NNW 8.1 mph - N/A   Scattered Clouds
4:35 PM 91.8 °F 96.0 °F 68.4 °F 46% 29.97 in 10.0 mi West 5.8 mph - N/A   Clear
4:55 PM 92.1 °F 96.2 °F 68.2 °F 45% 29.97 in 10.0 mi North 9.2 mph - N/A   Mostly Cloudy
5:15 PM 92.1 °F 96.2 °F 67.8 °F 45% 29.97 in 10.0 mi WNW 4.6 mph - N/A   Scattered Clouds
5:35 PM 91.8 °F 95.5 °F 67.6 °F 45% 29.97 in 10.0 mi WNW 5.8 mph - N/A   Clear
5:55 PM 91.4 °F 94.9 °F 67.6 °F 45% 29.97 in 10.0 mi NW 10.4 mph - N/A   Scattered Clouds
6:15 PM 91.2 °F 94.6 °F 67.1 °F 45% 29.97 in 10.0 mi WNW 5.8 mph - N/A   Scattered Clouds
6:35 PM 90.5 °F 94.2 °F 67.8 °F 47% 29.97 in 10.0 mi WNW 4.6 mph - N/A   Clear
6:55 PM 88.7 °F 92.2 °F 68.0 °F 50% 29.98 in 10.0 mi WNW 3.5 mph - N/A   Scattered Clouds
7:15 PM 88.0 °F 92.1 °F 68.7 °F 53% 29.98 in 10.0 mi NW 3.5 mph - N/A   Clear
7:35 PM 87.1 °F 90.9 °F 68.7 °F 54% 29.98 in 10.0 mi Calm Calm - N/A   Clear
7:55 PM 84.7 °F 88.5 °F 69.1 °F 59% 29.99 in 10.0 mi Calm Calm - N/A   Clear
8:15 PM 81.5 °F 85.3 °F 70.3 °F 69% 29.99 in 10.0 mi Calm Calm - N/A   Clear
8:35 PM 80.2 °F 83.5 °F 70.2 °F 71% 29.99 in 10.0 mi Calm Calm - N/A   Clear
8:55 PM 78.3 °F - 70.3 °F 77% 30.00 in 10.0 mi Calm Calm - N/A   Clear
9:15 PM 78.3 °F - 69.8 °F 75% 30.00 in 10.0 mi Calm Calm - N/A   Clear
9:35 PM 78.3 °F - 69.1 °F 73% 30.01 in 10.0 mi Calm Calm - N/A   Clear
9:55 PM 77.2 °F - 69.6 °F 77% 30.01 in 10.0 mi Calm Calm - N/A   Clear
10:15 PM 76.6 °F - 69.1 °F 77% 30.02 in 10.0 mi Calm Calm - N/A   Clear
10:35 PM 77.4 °F - 68.2 °F 73% 30.02 in 10.0 mi Calm Calm - N/A   Clear
10:55 PM 76.5 °F - 68.0 °F 75% 30.03 in 10.0 mi Calm Calm - N/A   Clear
11:15 PM 76.3 °F - 67.1 °F 73% 30.03 in 10.0 mi Calm Calm - N/A   Clear
11:35 PM 75.7 °F - 66.9 °F 74% 30.04 in 10.0 mi Calm Calm - N/A   Clear
11:55 PM 74.7 °F - 66.4 °F 75% 30.04 in 10.0 mi Calm Calm - N/A   Clear